Weather History for Ann Arbor, MI

Change the Weather History Date:

Wednesday, May 22, 2013

  Actual Average Record
Temperature  
Mean Temperature 70 °F -  
Max Temperature 81 °F 65 °F 84 °F (2011)
Min Temperature 60 °F 43 °F 28 °F (2002)
Cooling Degree Days 4    
Growing Degree Days 20 (Base 50)    
Moisture  
Dew Point 62 °F    
Average Humidity 87    
Maximum Humidity 100    
Minimum Humidity 50    
Precipitation  
Precipitation 0.11 in - - ()
Sea Level Pressure  
Sea Level Pressure 29.72 in    
Wind  
Wind Speed 5 mph (SW)    
Max Wind Speed 30 mph    
Max Gust Speed 81 mph    
Visibility 7 miles    
Events Rain , Thunderstorm    
Averages and records for this station are not official NWS values.
T = Trace of Precipitation, MM = Missing Value Source: NWS Daily Summary

Daily Weather History Graph

Daily Weather History Graph

Search for Another Location

Airport:

Trip Planner

Search our weather history database for the weather conditions in past years. The results will help you decide how hot, cold, wet, or windy it might be!

Date:

Astronomy

May. 22, 2013 Rise Set
Actual Time 6:07 AM EDT 8:56 PM EDT
Civil Twilight 5:34 AM EDT 9:29 PM EDT
Nautical Twilight 4:53 AM EDT 10:11 PM EDT
Astronomical Twilight 4:05 AM EDT 10:59 PM EDT
Moon 6:15 PM EDT 4:13 AM EDT
Length of Visible Light 15h 54m
Length of Day
14h 49m
Waxing Gibbous, 91% of the Moon is Illuminated
May 22
Waxing Gibbous
May 25
Full
May 31
Last Quarter
Jun 8
New
Jun 16
First Quarter

Hourly Weather History & Observations

Time (EDT) Temp. Dew Point Humidity Pressure Visibility Wind Dir Wind Speed Gust Speed Precip Events Conditions
12:53 AM 64.9 °F 63.0 °F 93% 29.75 in 9.0 mi Calm Calm - N/A   Scattered Clouds
1:30 AM 62.6 °F 62.6 °F 100% 29.76 in 1.5 mi Calm Calm - N/A   Clear
1:35 AM 62.6 °F 62.6 °F 100% 29.76 in 0.8 mi Calm Calm - N/A   Clear
1:41 AM 64.4 °F 62.6 °F 94% 29.75 in 1.5 mi Calm Calm - N/A   Clear
1:44 AM 64.4 °F 62.6 °F 94% 29.75 in 3.0 mi Calm Calm - N/A   Clear
1:53 AM 63.0 °F 62.1 °F 97% 29.74 in 7.0 mi Calm Calm - N/A   Clear
1:58 AM 62.6 °F 62.6 °F 100% 29.76 in 1.8 mi Calm Calm - N/A   Clear
2:01 AM 62.6 °F 62.6 °F 100% 29.76 in 0.8 mi WSW 3.5 mph - N/A   Clear
2:12 AM 62.6 °F 62.6 °F 100% 29.75 in 1.8 mi Calm Calm - N/A   Clear
2:14 AM 64.4 °F 62.6 °F 94% 29.75 in 3.0 mi Calm Calm - N/A   Clear
2:16 AM 62.6 °F 62.6 °F 100% 29.75 in 1.5 mi Calm Calm - N/A   Clear
2:19 AM 60.8 °F 60.8 °F 100% 29.75 in 0.8 mi Calm Calm - N/A   Clear
2:32 AM 60.8 °F 60.8 °F 100% 29.75 in 1.5 mi Calm Calm - N/A   Clear
2:37 AM 62.6 °F 60.8 °F 94% 29.75 in 3.0 mi Calm Calm - N/A   Clear
2:43 AM 60.8 °F 60.8 °F 100% 29.75 in 1.5 mi Calm Calm - N/A   Clear
2:50 AM 62.6 °F 60.8 °F 94% 29.75 in 1.0 mi Calm Calm - N/A   Clear
2:53 AM 63.0 °F 62.1 °F 97% 29.73 in 1.5 mi Calm Calm - N/A   Clear
2:56 AM 62.6 °F 62.6 °F 100% 29.75 in 4.0 mi Calm Calm - N/A   Clear
3:53 AM 62.1 °F 60.1 °F 93% 29.73 in 10.0 mi SSW 4.6 mph - N/A   Clear
4:53 AM 66.0 °F 60.1 °F 81% 29.72 in 10.0 mi SSW 5.8 mph - N/A   Clear
5:53 AM 66.0 °F 61.0 °F 84% 29.72 in 10.0 mi SSW 4.6 mph - 0.00 in   Scattered Clouds
6:53 AM 66.9 °F 61.0 °F 81% 29.73 in 10.0 mi South 5.8 mph - N/A   Overcast
7:53 AM 66.9 °F 61.0 °F 81% 29.74 in 10.0 mi South 8.1 mph - 0.00 in   Overcast
8:53 AM 66.9 °F 63.0 °F 87% 29.74 in 9.0 mi South 6.9 mph - 0.01 in Rain Light Rain
9:46 AM 69.8 °F 64.4 °F 83% 29.74 in 10.0 mi SSE 18.4 mph 80.6 mph 0.00 in   Squalls
9:53 AM 70.0 °F 64.0 °F 81% 29.72 in 10.0 mi SSW 11.5 mph 80.6 mph 0.00 in   Partly Cloudy
10:14 AM 69.8 °F 64.4 °F 83% 29.73 in 10.0 mi SSW 12.7 mph 21.9 mph N/A   Mostly Cloudy
10:53 AM 71.1 °F 64.0 °F 78% 29.72 in 10.0 mi SW 15.0 mph 52.9 mph N/A   Mostly Cloudy
11:26 AM 71.6 °F 62.6 °F 73% 29.72 in 10.0 mi SSW 13.8 mph 20.7 mph N/A   Mostly Cloudy
11:53 AM 71.1 °F 63.0 °F 75% 29.71 in 10.0 mi SSW 12.7 mph - N/A   Overcast
12:05 PM 71.6 °F 62.6 °F 73% 29.72 in 10.0 mi SW 12.7 mph 17.3 mph N/A   Overcast
12:53 PM 71.1 °F 62.1 °F 73% 29.69 in 10.0 mi SSW 15.0 mph 20.7 mph 0.00 in   Overcast
1:34 PM 73.4 °F 62.6 °F 69% 29.70 in 10.0 mi SSW 13.8 mph 21.9 mph N/A   Mostly Cloudy
1:53 PM 73.0 °F 62.1 °F 68% 29.69 in 10.0 mi SSW 17.3 mph 27.6 mph N/A   Overcast
2:53 PM 75.9 °F 62.1 °F 62% 29.67 in 10.0 mi SSW 16.1 mph 26.5 mph N/A   Mostly Cloudy
3:53 PM 79.0 °F 60.1 °F 52% 29.65 in 10.0 mi SW 17.3 mph 29.9 mph N/A   Scattered Clouds
4:53 PM 79.0 °F 59.0 °F 50% 29.63 in 10.0 mi SW 17.3 mph 32.2 mph N/A   Partly Cloudy
5:15 PM 75.2 °F 57.2 °F 53% 29.66 in 10.0 mi SSW 29.9 mph 42.6 mph N/A Thunderstorm Mostly Cloudy
5:33 PM 66.2 °F 62.6 °F 88% 29.68 in 4.0 mi SW 17.3 mph 33.4 mph 0.03 in Rain Light Rain
5:53 PM 66.9 °F - N/A% 29.66 in 10.0 mi SW 9.2 mph - 0.03 in Rain Light Rain
6:53 PM 71.1 °F - N/A% 29.65 in 10.0 mi SW 9.2 mph - 0.00 in   Clear
7:53 PM 70.0 °F - N/A% 29.67 in 10.0 mi SSW 8.1 mph - N/A Thunderstorm Clear
8:09 PM 68.0 °F - N/A% 29.69 in 4.0 mi WNW 13.8 mph 24.2 mph 0.03 in Rain Rain
8:26 PM 66.2 °F 64.4 °F 94% 29.69 in 5.0 mi West 8.1 mph - 0.06 in Rain , Thunderstorm Light Thunderstorms and Rain
8:41 PM 64.4 °F 64.4 °F 100% 29.69 in 10.0 mi WSW 3.5 mph - 0.07 in   Mostly Cloudy
8:53 PM 64.0 °F 64.0 °F 100% 29.69 in 10.0 mi SSW 3.5 mph - 0.07 in   Mostly Cloudy
9:53 PM 61.0 °F 59.0 °F 93% 29.70 in 10.0 mi SW 5.8 mph - N/A   Mostly Cloudy
10:53 PM 61.0 °F 59.0 °F 93% 29.71 in 10.0 mi SW 5.8 mph - N/A   Overcast
11:53 PM 60.1 °F 57.9 °F 93% 29.71 in 10.0 mi SSW 5.8 mph - N/A   Partly Cloudy